| time (UTC) | temp F | wind direction | speed MPH | gust MPH | rain 1hr in | rain 24hr in | rain mn in | humidity % | barometer mb |
| 20260831190246 | 68 | 92 | 6.0 | 16.0 | 0.00 | 0.00 | 0.00 | 95 | 949.3 |
| 20260831185745 | 68 | 96 | 7.0 | 16.0 | 0.00 | 0.00 | 0.00 | 95 | 949.2 |
| 20260831184212 | 68 | 70 | 7.0 | 13.0 | 0.00 | 0.00 | 0.00 | 92 | 949.6 |
| 20260831183711 | 69 | 79 | 7.0 | 16.0 | 0.00 | 0.00 | 0.00 | 91 | 949.1 |
| 20260831182654 | 68 | 62 | 9.0 | 18.0 | 0.00 | 0.00 | 0.00 | 89 | 949.1 |
| 20260831182153 | 68 | 64 | 6.0 | 13.0 | 0.00 | 0.00 | 0.00 | 90 | 949.1 |
| 20260831181652 | 68 | 61 | 6.0 | 13.0 | 0.00 | 0.00 | 0.00 | 91 | 948.7 |
| 20260831181150 | 68 | 55 | 6.0 | 14.0 | 0.00 | 0.00 | 0.00 | 91 | 948.7 |
| 20260831180649 | 68 | 53 | 7.0 | 14.0 | 0.00 | 0.00 | 0.00 | 91 | 948.9 |
| 20260831180148 | 68 | 52 | 7.0 | 22.0 | 0.00 | 0.00 | 0.00 | 91 | 948.7 |
| 20260831175646 | 68 | 66 | 6.0 | 22.0 | 0.00 | 0.00 | 0.00 | 91 | 948.9 |
| 20260831175145 | 68 | 70 | 7.0 | 16.0 | 0.00 | 0.00 | 0.00 | 91 | 948.7 |
| 20260831174644 | 67 | 62 | 8.0 | 15.0 | 0.00 | 0.00 | 0.00 | 92 | 949.0 |
| 20260831174143 | 67 | 77 | 8.0 | 19.0 | 0.00 | 0.00 | 0.00 | 93 | 949.0 |
| 20260831173642 | 67 | 77 | 7.0 | 21.0 | 0.00 | 0.00 | 0.00 | 93 | 948.7 |
| 20260831172109 | 67 | 76 | 8.0 | 23.0 | 0.00 | 0.00 | 0.00 | 94 | 948.4 |
| 20260831171608 | 66 | 72 | 8.0 | 23.0 | 0.00 | 0.00 | 0.00 | 94 | 948.3 |
| 20260831171106 | 66 | 77 | 9.0 | 22.0 | 0.00 | 0.00 | 0.00 | 93 | 948.1 |
| 20260831170605 | 66 | 74 | 10.0 | 22.0 | 0.00 | 0.00 | 0.00 | 93 | 948.0 |
| 20260831170104 | 66 | 84 | 9.0 | 22.0 | 0.00 | 0.00 | 0.00 | 93 | 947.7 |
| 20260831165603 | 66 | 78 | 8.0 | 19.0 | 0.00 | 0.00 | 0.00 | 93 | 948.0 |
| 20260831165102 | 66 | 78 | 9.0 | 24.0 | 0.00 | 0.00 | 0.00 | 93 | 947.7 |
| 20260831164601 | 66 | 79 | 10.0 | 24.0 | 0.00 | 0.00 | 0.00 | 94 | 947.9 |
| 20260831164100 | 66 | 85 | 9.0 | 22.0 | 0.00 | 0.00 | 0.00 | 94 | 947.7 |
| 20260831163559 | 66 | 83 | 13.0 | 23.0 | 0.00 | 0.00 | 0.00 | 95 | 947.5 |
| 20260831162542 | 66 | 71 | 10.0 | 24.0 | 0.00 | 0.00 | 0.00 | 95 | 947.2 |
| 20260831161524 | 66 | 82 | 10.0 | 23.0 | 0.00 | 0.00 | 0.00 | 95 | 947.5 |
| 20260831161023 | 66 | 76 | 9.0 | 25.0 | 0.00 | 0.00 | 0.00 | 95 | 947.3 |
| 20260831160522 | 66 | 84 | 9.0 | 25.0 | 0.00 | 0.00 | 0.00 | 94 | 947.3 |
| 20260831160021 | 66 | 78 | 11.0 | 20.0 | 0.00 | 0.00 | 0.00 | 94 | 947.5 |
| 20260831155520 | 66 | 90 | 10.0 | 19.0 | 0.00 | 0.00 | 0.00 | 93 | 947.5 |
| 20260831155019 | 66 | 87 | 9.0 | 19.0 | 0.00 | 0.00 | 0.00 | 93 | 947.7 |
| 20260831154518 | 66 | 97 | 10.0 | 20.0 | 0.00 | 0.00 | 0.00 | 93 | 947.7 |
| 20260831154017 | 66 | 83 | 8.0 | 20.0 | 0.00 | 0.00 | 0.00 | 92 | 947.6 |
| 20260831153516 | 66 | 83 | 8.0 | 20.0 | 0.00 | 0.00 | 0.00 | 92 | 948.0 |
| 20260831152458 | 66 | 91 | 11.0 | 22.0 | 0.00 | 0.00 | 0.00 | 93 | 947.9 |
| 20260831151957 | 66 | 91 | 9.0 | 21.0 | 0.00 | 0.00 | 0.00 | 93 | 947.9 |
| 20260831150424 | 66 | 91 | 9.0 | 19.0 | 0.00 | 0.00 | 0.00 | 93 | 947.7 |
| 20260831145407 | 66 | 91 | 7.0 | 21.0 | 0.00 | 0.00 | 0.00 | 93 | 948.2 |
| 20260831144905 | 66 | 90 | 9.0 | 21.0 | 0.00 | 0.00 | 0.00 | 93 | 948.0 |
| 20260831144404 | 66 | 103 | 10.0 | 20.0 | 0.00 | 0.00 | 0.00 | 93 | 948.1 |
| 20260831143903 | 66 | 94 | 9.0 | 20.0 | 0.00 | 0.00 | 0.00 | 93 | 948.4 |
| 20260831142846 | 66 | 101 | 9.0 | 20.0 | 0.00 | 0.00 | 0.00 | 93 | 948.4 |
| 20260831142344 | 66 | 94 | 7.0 | 19.0 | 0.00 | 0.00 | 0.00 | 94 | 948.3 |
| 20260831141843 | 66 | 100 | 7.0 | 20.0 | 0.00 | 0.00 | 0.00 | 94 | 948.5 |
| 20260831141342 | 66 | 95 | 8.0 | 20.0 | 0.00 | 0.00 | 0.00 | 94 | 948.2 |
| 20260831140841 | 66 | 93 | 11.0 | 19.0 | 0.00 | 0.00 | 0.00 | 94 | 947.9 |
| 20260831140340 | 66 | 91 | 11.0 | 19.0 | 0.00 | 0.00 | 0.00 | 94 | 948.1 |
| 20260831135839 | 66 | 92 | 9.0 | 21.0 | 0.00 | 0.00 | 0.00 | 94 | 948.1 |
| 20260831135338 | 66 | 91 | 7.0 | 21.0 | 0.00 | 0.00 | 0.00 | 94 | 948.1 |
| 20260831134837 | 66 | 90 | 6.0 | 22.0 | 0.00 | 0.00 | 0.00 | 94 | 948.2 |
| 20260831134335 | 66 | 93 | 7.0 | 22.0 | 0.00 | 0.00 | 0.00 | 94 | 948.3 |
| 20260831133834 | 66 | 90 | 9.0 | 18.0 | 0.00 | 0.00 | 0.00 | 94 | 948.3 |
| 20260831133333 | 66 | 70 | 6.0 | 18.0 | 0.00 | 0.00 | 0.00 | 94 | 948.4 |
| 20260831132832 | 65 | 75 | 9.0 | 18.0 | 0.00 | 0.00 | 0.00 | 94 | 948.2 |
| 20260831132331 | 65 | 74 | 10.0 | 21.0 | 0.00 | 0.00 | 0.00 | 94 | 948.3 |
| 20260831131830 | 65 | 82 | 8.0 | 21.0 | 0.00 | 0.00 | 0.00 | 94 | 948.2 |
| 20260831131329 | 65 | 89 | 8.0 | 23.0 | 0.00 | 0.00 | 0.00 | 94 | 948.2 |
| 20260831130828 | 65 | 87 | 10.0 | 23.0 | 0.00 | 0.00 | 0.00 | 95 | 947.8 |
| 20260831130327 | 65 | 88 | 11.0 | 19.0 | 0.00 | 0.00 | 0.00 | 94 | 948.2 |
| 20260831125309 | 66 | 78 | 6.0 | 20.0 | 0.00 | 0.00 | 0.00 | 96 | 948.1 |
| 20260831124808 | 66 | 81 | 8.0 | 20.0 | 0.00 | 0.00 | 0.00 | 96 | 948.1 |
| 20260831124307 | 66 | 85 | 10.0 | 19.0 | 0.00 | 0.00 | 0.00 | 96 | 948.2 |
| 20260831123806 | 66 | 94 | 7.0 | 16.0 | 0.00 | 0.00 | 0.00 | 96 | 948.3 |
| 20260831123305 | 66 | 66 | 6.0 | 16.0 | 0.00 | 0.00 | 0.00 | 96 | 948.3 |
| 20260831122804 | 65 | 67 | 7.0 | 21.0 | 0.00 | 0.00 | 0.00 | 96 | 948.0 |
| 20260831121231 | 65 | 73 | 9.0 | 18.0 | 0.00 | 0.00 | 0.00 | 96 | 948.6 |
| 20260831120729 | 65 | 69 | 8.0 | 20.0 | 0.00 | 0.00 | 0.00 | 96 | 948.5 |
| 20260831120228 | 65 | 61 | 6.0 | 22.0 | 0.00 | 0.00 | 0.00 | 96 | 948.4 |
| 20260831115727 | 65 | 78 | 11.0 | 22.0 | 0.00 | 0.00 | 0.00 | 96 | 948.7 |
| 20260831115226 | 65 | 74 | 9.0 | 22.0 | 0.00 | 0.00 | 0.00 | 96 | 948.7 |
| 20260831113653 | 65 | 62 | 9.0 | 22.0 | 0.00 | 0.00 | 0.00 | 95 | 948.8 |
| 20260831113152 | 66 | 63 | 10.0 | 22.0 | 0.00 | 0.00 | 0.00 | 95 | 948.7 |
| 20260831111619 | 66 | 83 | 6.0 | 13.0 | 0.00 | 0.00 | 0.00 | 97 | 948.9 |
| 20260831111118 | 66 | 71 | 7.0 | 13.0 | 0.00 | 0.00 | 0.00 | 97 | 949.0 |
| 20260831110617 | 66 | 68 | 6.0 | 13.0 | 0.00 | 0.00 | 0.00 | 96 | 948.9 |
| 20260831110117 | 66 | 58 | 6.0 | 15.0 | 0.00 | 0.00 | 0.00 | 96 | 948.9 |
| 20260831105615 | 67 | 62 | 6.0 | 20.0 | 0.00 | 0.00 | 0.00 | 96 | 948.9 |
| 20260831105114 | 67 | 65 | 8.0 | 20.0 | 0.00 | 0.00 | 0.00 | 96 | 949.2 |
| 20260831104057 | 67 | 77 | 10.0 | 18.0 | 0.00 | 0.00 | 0.00 | 96 | 949.1 |
| 20260831103557 | 66 | 87 | 9.0 | 18.0 | 0.00 | 0.00 | 0.00 | 96 | 948.9 |
| 20260831103055 | 67 | 75 | 8.0 | 18.0 | 0.00 | 0.00 | 0.00 | 96 | 949.2 |
| 20260831102554 | 67 | 91 | 8.0 | 18.0 | 0.00 | 0.00 | 0.00 | 96 | 949.3 |
| 20260831102053 | 67 | 78 | 10.0 | 19.0 | 0.00 | 0.00 | 0.00 | 96 | 949.4 |
| 20260831101552 | 67 | 80 | 6.0 | 20.0 | 0.00 | 0.00 | 0.00 | 96 | 949.6 |
| 20260831101052 | 66 | 75 | 8.0 | 21.0 | 0.00 | 0.00 | 0.00 | 96 | 949.4 |
| 20260831100551 | 66 | 73 | 10.0 | 21.0 | 0.00 | 0.00 | 0.00 | 96 | 949.5 |
| 20260831095534 | 66 | 69 | 8.0 | 22.0 | 0.00 | 0.00 | 0.00 | 96 | 949.4 |
| 20260831094001 | 66 | 70 | 8.0 | 20.0 | 0.00 | 0.00 | 0.00 | 95 | 949.6 |
| 20260831093459 | 66 | 69 | 8.0 | 20.0 | 0.00 | 0.00 | 0.00 | 95 | 949.7 |
| 20260831092958 | 66 | 70 | 8.0 | 18.0 | 0.00 | 0.00 | 0.00 | 95 | 949.4 |
| 20260831092458 | 66 | 76 | 9.0 | 21.0 | 0.00 | 0.00 | 0.00 | 95 | 949.9 |
| 20260831091956 | 66 | 62 | 9.0 | 21.0 | 0.00 | 0.00 | 0.00 | 95 | 949.5 |
| 20260831091456 | 66 | 75 | 7.0 | 16.0 | 0.00 | 0.00 | 0.00 | 96 | 949.4 |
| 20260831090954 | 66 | 65 | 8.0 | 18.0 | 0.00 | 0.00 | 0.00 | 96 | 949.5 |
| 20260831090454 | 66 | 72 | 7.0 | 18.0 | 0.00 | 0.00 | 0.00 | 95 | 949.5 |
| 20260831085952 | 66 | 59 | 8.0 | 18.0 | 0.00 | 0.00 | 0.00 | 95 | 949.9 |
| 20260831084935 | 66 | 61 | 7.0 | 18.0 | 0.00 | 0.00 | 0.00 | 95 | 949.8 |
| 20260831084435 | 66 | 68 | 9.0 | 16.0 | 0.00 | 0.00 | 0.00 | 95 | 950.0 |
| 20260831082902 | 66 | 61 | 7.0 | 20.0 | 0.00 | 0.00 | 0.00 | 93 | 949.6 |
| 20260831082401 | 66 | 55 | 7.0 | 20.0 | 0.00 | 0.00 | 0.00 | 92 | 949.4 |
| 20260831080826 | 66 | 61 | 6.0 | 20.0 | 0.00 | 0.00 | 0.00 | 93 | 949.7 |
| 20260831080326 | 66 | 57 | 6.0 | 20.0 | 0.00 | 0.00 | 0.00 | 92 | 949.6 |
| 20260831075825 | 66 | 60 | 6.0 | 19.0 | 0.00 | 0.00 | 0.00 | 92 | 949.5 |
| 20260831075323 | 66 | 59 | 7.0 | 18.0 | 0.00 | 0.00 | 0.00 | 91 | 949.6 |
| 20260831074823 | 66 | 59 | 9.0 | 18.0 | 0.00 | 0.00 | 0.00 | 90 | 949.6 |
| 20260831072734 | 66 | 71 | 8.0 | 18.0 | 0.00 | 0.00 | 0.00 | 91 | 949.6 |
| 20260831071717 | 66 | 70 | 7.0 | 20.0 | 0.00 | 0.00 | 0.00 | 91 | 949.6 |
| 20260831071216 | 66 | 64 | 7.0 | 20.0 | 0.00 | 0.00 | 0.00 | 91 | 949.5 |
| 20260831070715 | 67 | 82 | 5.0 | 21.0 | 0.00 | 0.00 | 0.00 | 91 | 949.6 |
| 20260831070214 | 67 | 68 | 9.0 | 21.0 | 0.00 | 0.00 | 0.00 | 91 | 949.7 |
| 20260831065713 | 67 | 71 | 6.0 | 19.0 | 0.00 | 0.00 | 0.00 | 91 | 949.5 |
| 20260831065212 | 67 | 72 | 7.0 | 19.0 | 0.00 | 0.00 | 0.00 | 91 | 949.3 |
| 20260831064711 | 67 | 76 | 8.0 | 15.0 | 0.00 | 0.00 | 0.00 | 92 | 949.3 |
| 20260831064210 | 67 | 68 | 6.0 | 16.0 | 0.00 | 0.00 | 0.00 | 92 | 949.2 |
| 20260831063709 | 67 | 76 | 7.0 | 16.0 | 0.00 | 0.00 | 0.00 | 92 | 949.2 |
| 20260831063208 | 67 | 82 | 7.0 | 16.0 | 0.00 | 0.00 | 0.00 | 92 | 949.5 |
| 20260831062707 | 67 | 78 | 5.0 | 15.0 | 0.00 | 0.00 | 0.00 | 92 | 949.2 |
| 20260831062206 | 67 | 82 | 6.0 | 15.0 | 0.00 | 0.00 | 0.00 | 91 | 949.3 |
| 20260831061149 | 66 | 59 | 5.0 | 15.0 | 0.00 | 0.00 | 0.00 | 91 | 949.4 |
| 20260831060648 | 67 | 74 | 7.0 | 20.0 | 0.00 | 0.00 | 0.00 | 91 | 949.2 |
| 20260831060147 | 67 | 66 | 7.0 | 20.0 | 0.00 | 0.00 | 0.00 | 91 | 948.9 |
| 20260831055129 | 67 | 89 | 5.0 | 13.0 | 0.00 | 0.00 | 0.00 | 92 | 949.2 |
| 20260831054628 | 67 | 65 | 6.0 | 15.0 | 0.00 | 0.00 | 0.00 | 92 | 949.6 |
| 20260831054127 | 67 | 89 | 3.0 | 16.0 | 0.00 | 0.00 | 0.00 | 93 | 949.5 |
| 20260831053626 | 68 | 100 | 5.0 | 16.0 | 0.00 | 0.00 | 0.00 | 93 | 949.1 |
| 20260831053125 | 68 | 78 | 4.0 | 12.0 | 0.00 | 0.00 | 0.00 | 93 | 948.9 |
| 20260831052624 | 68 | 66 | 4.0 | 13.0 | 0.00 | 0.00 | 0.00 | 94 | 949.2 |
| 20260831052123 | 68 | 102 | 5.0 | 13.0 | 0.00 | 0.00 | 0.00 | 94 | 949.0 |
| 20260831051622 | 68 | 95 | 3.0 | 12.0 | 0.00 | 0.00 | 0.00 | 93 | 949.0 |
| 20260831051120 | 68 | 83 | 3.0 | 12.0 | 0.00 | 0.00 | 0.00 | 92 | 948.7 |
| 20260831050619 | 67 | 80 | 5.0 | 13.0 | 0.00 | 0.00 | 0.00 | 92 | 948.8 |
| 20260831050118 | 68 | 68 | 5.0 | 13.0 | 0.00 | 0.00 | 0.00 | 92 | 948.6 |
| 20260831045616 | 68 | 65 | 3.0 | 12.0 | 0.00 | 0.00 | 0.00 | 92 | 949.1 |
| 20260831045115 | 68 | 82 | 4.0 | 12.0 | 0.00 | 0.00 | 0.00 | 92 | 949.0 |
| 20260831044614 | 68 | 74 | 5.0 | 12.0 | 0.00 | 0.00 | 0.00 | 91 | 948.9 |
| 20260831043557 | 68 | 89 | 2.0 | 13.0 | 0.00 | 0.00 | 0.00 | 91 | 949.0 |
| 20260831043056 | 68 | 78 | 3.0 | 13.0 | 0.00 | 0.00 | 0.00 | 89 | 949.2 |
| 20260831042555 | 68 | 97 | 3.0 | 13.0 | 0.00 | 0.00 | 0.00 | 90 | 949.1 |
| 20260831042054 | 69 | 80 | 3.0 | 15.0 | 0.00 | 0.00 | 0.00 | 89 | 949.0 |
| 20260831041553 | 69 | 68 | 4.0 | 15.0 | 0.00 | 0.00 | 0.00 | 88 | 948.9 |
| 20260831041052 | 69 | 59 | 4.0 | 15.0 | 0.00 | 0.00 | 0.00 | 87 | 948.9 |
| 20260831040551 | 69 | 40 | 5.0 | 15.0 | 0.00 | 0.00 | 0.00 | 86 | 949.0 |
| 20260831040050 | 70 | 40 | 5.0 | 15.0 | 0.00 | 0.00 | 0.00 | 85 | 948.8 |
| 20260831034517 | 71 | 57 | 5.0 | 19.0 | 0.00 | 0.00 | 0.00 | 84 | 948.6 |
| 20260831034016 | 71 | 43 | 6.0 | 19.0 | 0.00 | 0.00 | 0.00 | 84 | 948.4 |
| 20260831033514 | 71 | 55 | 5.0 | 12.0 | 0.00 | 0.00 | 0.00 | 82 | 948.3 |
| 20260831032457 | 72 | 41 | 7.0 | 15.0 | 0.00 | 0.00 | 0.00 | 81 | 948.2 |
| 20260831031956 | 72 | 47 | 6.0 | 14.0 | 0.00 | 0.00 | 0.00 | 82 | 948.2 |
| 20260831031455 | 72 | 51 | 8.0 | 13.0 | 0.00 | 0.00 | 0.00 | 80 | 948.1 |
| 20260831030954 | 73 | 54 | 7.0 | 16.0 | 0.00 | 0.00 | 0.00 | 81 | 948.3 |
| 20260831025937 | 73 | 46 | 7.0 | 16.0 | 0.00 | 0.00 | 0.00 | 80 | 948.2 |
| 20260831025436 | 73 | 45 | 8.0 | 16.0 | 0.00 | 0.00 | 0.00 | 79 | 948.2 |
| 20260831024935 | 73 | 39 | 7.0 | 15.0 | 0.00 | 0.00 | 0.00 | 78 | 948.2 |
| 20260831024434 | 74 | 43 | 8.0 | 16.0 | 0.00 | 0.00 | 0.00 | 78 | 948.0 |
| 20260831023933 | 74 | 47 | 7.0 | 16.0 | 0.00 | 0.00 | 0.00 | 78 | 947.8 |
| 20260831023432 | 75 | 55 | 6.0 | 14.0 | 0.00 | 0.00 | 0.00 | 78 | 948.3 |
| 20260831022931 | 75 | 58 | 4.0 | 14.0 | 0.00 | 0.00 | 0.00 | 79 | 947.9 |
| 20260831022430 | 75 | 70 | 5.0 | 14.0 | 0.00 | 0.00 | 0.00 | 79 | 948.2 |
| 20260831021929 | 75 | 60 | 6.0 | 14.0 | 0.00 | 0.00 | 0.00 | 79 | 948.2 |
| 20260831021428 | 75 | 58 | 6.0 | 14.0 | 0.00 | 0.00 | 0.00 | 78 | 948.3 |
| 20260831020927 | 75 | 58 | 6.0 | 14.0 | 0.00 | 0.00 | 0.00 | 79 | 948.1 |
| 20260831020426 | 75 | 52 | 6.0 | 13.0 | 0.00 | 0.00 | 0.00 | 78 | 948.3 |
| 20260831015925 | 75 | 63 | 5.0 | 13.0 | 0.00 | 0.00 | 0.00 | 77 | 948.5 |
| 20260831015424 | 75 | 52 | 5.0 | 13.0 | 0.00 | 0.00 | 0.00 | 77 | 948.4 |
| 20260831014923 | 75 | 47 | 6.0 | 13.0 | 0.00 | 0.00 | 0.00 | 77 | 948.7 |
| 20260831014422 | 75 | 42 | 6.0 | 13.0 | 0.00 | 0.00 | 0.00 | 75 | 948.5 |
| 20260831013921 | 75 | 54 | 5.0 | 13.0 | 0.00 | 0.00 | 0.00 | 77 | 948.3 |
| 20260831013419 | 75 | 51 | 5.0 | 15.0 | 0.00 | 0.00 | 0.00 | 76 | 948.4 |
| 20260831012918 | 75 | 51 | 6.0 | 15.0 | 0.00 | 0.00 | 0.00 | 77 | 948.6 |
| 20260831012417 | 75 | 49 | 6.0 | 14.0 | 0.00 | 0.00 | 0.00 | 77 | 948.5 |
| 20260831011916 | 76 | 47 | 7.0 | 16.0 | 0.00 | 0.00 | 0.00 | 77 | 948.7 |
| 20260831011415 | 76 | 61 | 5.0 | 16.0 | 0.00 | 0.00 | 0.00 | 78 | 948.7 |
| 20260831010913 | 76 | 38 | 6.0 | 12.0 | 0.00 | 0.00 | 0.00 | 77 | 948.7 |
| 20260831010411 | 76 | 51 | 5.0 | 12.0 | 0.00 | 0.00 | 0.00 | 78 | 949.0 |
| 20260831005910 | 76 | 53 | 5.0 | 13.0 | 0.00 | 0.00 | 0.00 | 79 | 948.8 |
| 20260831005409 | 76 | 51 | 6.0 | 13.0 | 0.00 | 0.00 | 0.00 | 77 | 948.9 |
| 20260831004908 | 76 | 44 | 6.0 | 13.0 | 0.00 | 0.00 | 0.00 | 77 | 948.7 |
| 20260831003851 | 76 | 54 | 6.0 | 15.0 | 0.00 | 0.00 | 0.00 | 75 | 949.1 |
| 20260831002833 | 77 | 65 | 5.0 | 15.0 | 0.00 | 0.00 | 0.00 | 76 | 949.0 |
| 20260831001259 | 76 | 47 | 6.0 | 13.0 | 0.00 | 0.00 | 0.00 | 75 | 949.3 |
| 20260831000758 | 77 | 52 | 6.0 | 12.0 | 0.00 | 0.00 | 0.00 | 75 | 948.9 |
| 20260831000257 | 77 | 44 | 6.0 | 12.0 | 0.00 | 0.00 | 0.00 | 75 | 949.1 |
| 20260830235756 | 77 | 46 | 5.0 | 12.0 | 0.00 | 0.00 | 0.00 | 76 | 949.4 |
| 20260830234739 | 77 | 47 | 4.0 | 12.0 | 0.00 | 0.00 | 0.00 | 75 | 949.5 |
| 20260830234238 | 77 | 64 | 6.0 | 12.0 | 0.00 | 0.00 | 0.00 | 71 | 949.6 |
| 20260830233737 | 77 | 58 | 4.0 | 12.0 | 0.00 | 0.00 | 0.00 | 74 | 949.8 |
| 20260830232720 | 77 | 52 | 4.0 | 11.0 | 0.00 | 0.00 | 0.00 | 73 | 950.1 |
| 20260830232219 | 77 | 65 | 3.0 | 11.0 | 0.00 | 0.00 | 0.00 | 75 | 949.8 |
| 20260830231202 | 77 | 58 | 5.0 | 12.0 | 0.00 | 0.00 | 0.00 | 73 | 949.7 |
| 20260830230701 | 77 | 62 | 4.0 | 12.0 | 0.00 | 0.00 | 0.00 | 74 | 949.8 |
| 20260830230200 | 77 | 57 | 4.0 | 13.0 | 0.00 | 0.00 | 0.00 | 74 | 950.2 |
| 20260830225659 | 77 | 48 | 6.0 | 13.0 | 0.00 | 0.00 | 0.00 | 75 | 949.8 |
| 20260830224641 | 76 | 40 | 4.0 | 12.0 | 0.00 | 0.00 | 0.00 | 78 | 950.2 |
| 20260830224140 | 76 | 48 | 6.0 | 13.0 | 0.00 | 0.00 | 0.00 | 75 | 950.0 |
| 20260830223639 | 76 | 43 | 6.0 | 13.0 | 0.00 | 0.00 | 0.00 | 77 | 950.0 |
| 20260830223137 | 77 | 58 | 5.0 | 12.0 | 0.00 | 0.00 | 0.00 | 77 | 950.2 |
| 20260830222636 | 76 | 46 | 5.0 | 12.0 | 0.00 | 0.00 | 0.00 | 76 | 950.5 |
| 20260830222135 | 76 | 58 | 5.0 | 12.0 | 0.00 | 0.00 | 0.00 | 77 | 950.1 |
| 20260830221634 | 76 | 47 | 8.0 | 15.0 | 0.00 | 0.00 | 0.00 | 77 | 950.4 |
| 20260830221133 | 76 | 58 | 6.0 | 15.0 | 0.00 | 0.00 | 0.00 | 77 | 950.2 |
| 20260830220633 | 76 | 46 | 7.0 | 15.0 | 0.00 | 0.00 | 0.00 | 75 | 950.4 |
| 20260830220130 | 76 | 66 | 6.0 | 15.0 | 0.00 | 0.00 | 0.00 | 75 | 950.4 |
| 20260830215629 | 76 | 58 | 6.0 | 15.0 | 0.00 | 0.00 | 0.00 | 78 | 950.7 |
| 20260830215129 | 76 | 58 | 6.0 | 15.0 | 0.00 | 0.00 | 0.00 | 78 | 950.6 |
| 20260830214627 | 76 | 66 | 7.0 | 16.0 | 0.00 | 0.00 | 0.00 | 78 | 950.4 |
| 20260830213609 | 76 | 58 | 6.0 | 15.0 | 0.00 | 0.00 | 0.00 | 79 | 950.4 |
| 20260830212553 | 75 | 72 | 5.0 | 15.0 | 0.00 | 0.00 | 0.00 | 81 | 950.7 |
| 20260830212051 | 75 | 61 | 5.0 | 16.0 | 0.00 | 0.00 | 0.00 | 80 | 950.9 |
| 20260830211035 | 74 | 69 | 6.0 | 16.0 | 0.00 | 0.00 | 0.00 | 82 | 950.4 |
| 20260830210018 | 73 | 73 | 7.0 | 16.0 | 0.00 | 0.00 | 0.00 | 84 | 950.7 |
| 20260830205516 | 74 | 68 | 6.0 | 16.0 | 0.00 | 0.00 | 0.00 | 83 | 951.0 |
| 20260830205015 | 73 | 76 | 6.0 | 12.0 | 0.00 | 0.00 | 0.00 | 86 | 950.6 |
| 20260830203958 | 73 | 65 | 6.0 | 15.0 | 0.00 | 0.00 | 0.00 | 86 | 950.7 |
| 20260830203458 | 73 | 81 | 7.0 | 15.0 | 0.00 | 0.00 | 0.00 | 84 | 950.8 |
| 20260830202956 | 72 | 74 | 6.0 | 14.0 | 0.00 | 0.00 | 0.00 | 87 | 950.8 |
| 20260830202456 | 72 | 63 | 5.0 | 14.0 | 0.00 | 0.00 | 0.00 | 89 | 950.9 |
| 20260830201953 | 72 | 65 | 5.0 | 14.0 | 0.00 | 0.00 | 0.00 | 87 | 950.7 |
| 20260830201453 | 72 | 57 | 4.0 | 14.0 | 0.00 | 0.00 | 0.00 | 88 | 950.7 |
| 20260830200952 | 73 | 64 | 5.0 | 14.0 | 0.00 | 0.00 | 0.00 | 86 | 950.7 |
| 20260830200451 | 73 | 65 | 5.0 | 14.0 | 0.00 | 0.00 | 0.00 | 85 | 950.5 |
| 20260830195948 | 73 | 64 | 5.0 | 16.0 | 0.00 | 0.00 | 0.00 | 83 | 950.7 |
| 20260830195447 | 73 | 54 | 5.0 | 18.0 | 0.00 | 0.00 | 0.00 | 85 | 950.8 |
| 20260830194946 | 73 | 60 | 6.0 | 18.0 | 0.00 | 0.00 | 0.00 | 84 | 950.8 |
| 20260830194446 | 72 | 54 | 6.0 | 16.0 | 0.00 | 0.00 | 0.00 | 85 | 950.5 |
| 20260830193944 | 72 | 48 | 5.0 | 16.0 | 0.00 | 0.00 | 0.00 | 85 | 950.6 |
| 20260830193444 | 72 | 60 | 5.0 | 16.0 | 0.00 | 0.00 | 0.00 | 85 | 950.2 |
| 20260830192942 | 72 | 55 | 5.0 | 13.0 | 0.00 | 0.00 | 0.00 | 85 | 950.6 |
| 20260830192441 | 72 | 51 | 5.0 | 13.0 | 0.00 | 0.00 | 0.00 | 86 | 950.8 |
| 20260830191941 | 72 | 53 | 5.0 | 13.0 | 0.00 | 0.00 | 0.00 | 86 | 950.4 |
| 20260830191440 | 72 | 57 | 5.0 | 13.0 | 0.00 | 0.00 | 0.00 | 85 | 950.4 |
| 20260830190939 | 72 | 58 | 4.0 | 13.0 | 0.00 | 0.00 | 0.00 | 86 | 950.4 |